Terminal Aerodrome Forecast
Issued by NWS Charleston, WV

Current Version | Previous Version | Text Only | Print | Product List | Glossary Off
Versions: 1 2 3 4 5 6 7 8 9 10 11 12 13 14 15 16 17 18 19 20 21

430
FTUS41 KRLX 230849 AAA
TAFHTS
TAF AMD
KHTS 230849Z 2309/2406 VRB03KT 6SM BR SCT150
     FM231200 VRB03KT P6SM SCT140
     FM232000 11004KT P6SM BKN090=

USA.gov is the U.S. government's official web portal to all federal, state and local government web resources and services.